Location: La Fredeussais
(48.1780°N, 1.3980°W)
Time: 09:48:24
(UTC+00:00)

COSMOS 2406 - Pass Details

Date: 09 May 2021
Orbit: 845 x 862 km, 71.0° (Epoch: 13 June)

Event Time Altitude Azimuth Distance (km) Brightness Sun altitude
Rises 22:04:17 0° 328° (NNW) 3,415 8.0 -19.2°
Reaches altitude 10° 22:06:47 10° 324° (NW) 2,476 6.9 -19.4°
Maximum altitude 22:12:17 52° 250° (WSW) 1,040 3.7 -19.8°
Enters shadow 22:14:46 31° 190° (S) 1,457 4.0 -20.0°
